Vorticity
8 9 8 7 6 6 9 9 6 6 7 7 6 9 10 7 6 8 8 7 6 6 5 3 2 3 3 5 5 7 9 9 10 10 9 9 9 8 7 7 6 5
8 9 8 8 6 5 8 8 6 4 5 8 8 6 6 4 4 4 3 2 2 3 4 2 1 1 1 2 3 3 4 5 7 9 10 10 10 9 8 7 7 6
9 9 7 8 7 6 8 7 6 4 2 4 6 4 2 0 0 0 -1 -1 0 0 2 3 1 1 1 1 1 1 1 3 3 3 6 7 9 10 10 9 8 7
10 10 7 8 8 6 9 9 7 6 4 3 3 4 2 0 1 2 1 1 2 3 5 6 5 4 4 3 2 2 2 2 3 1 1 2 4 6 8 9 10 10
10 9 7 7 8 8 9 10 8 6 6 5 5 6 6 6 6 7 8 8 7 8 8 8 8 8 7 7 6 5 4 4 5 3 1 1 2 3 3 5 7 10
10 9 8 7 7 9 8 7 8 7 6 6 7 7 8 8 8 7 8 9 8 7 7 7 7 7 7 7 8 8 7 6 6 5 5 4 3 3 3 3 5 7
12 9 7 7 6 7 6 5 5 5 5 6 6 7 7 6 7 7 7 8 7 7 7 7 7 8 8 7 7 8 7 7 6 6 7 6 5 4 4 4 5 5
11 7 5 6 6 5 5 4 4 4 6 7 7 7 7 7 7 7 7 8 8 8 9 8 8 8 8 9 9 9 9 8 7 7 7 7 7 6 6 6 6 6
9 8 5 5 5 5 5 4 5 6 6 7 8 8 8 7 6 7 8 9 9 9 9 8 8 8 9 11 11 11 11 10 9 8 8 8 8 7 7 7 7 7
8 8 7 7 6 5 5 4 6 8 7 7 9 10 8 7 8 9 10 10 9 8 9 8 9 10 11 12 12 12 12 11 10 9 7 7 7 8 10 10 10 9
8 9 8 9 9 7 7 8 7 7 7 9 10 10 8 7 9 10 10 10 10 9 9 10 10 11 11 12 12 13 12 12 11 11 12 13 13 13 14 14 14 13
7 9 9 9 9 9 9 8 8 7 7 9 10 8 7 7 7 8 8 8 9 11 11 11 10 10 11 13 14 14 15 17 18 18 19 19 19 19 18 16 16 16
10 9 9 8 8 8 8 6 6 7 8 8 8 7 6 6 6 8 8 7 8 10 10 10 10 10 12 13 15 16 18 19 20 19 18 17 17 19 19 19 18 16
10 8 7 7 6 6 6 6 6 7 7 6 6 6 6 6 7 8 9 8 9 11 10 10 11 11 12 12 14 14 13 12 12 11 11 11 11 11 11 11 11 10
8 7 7 7 8 8 6 6 6 6 6 6 5 5 5 6 7 7 8 9 10 12 12 12 12 11 11 11 10 9 6 6 6 6 7 7 7 6 4 4 4 3
7 7 8 7 6 6 4 4 5 5 6 5 5 5 5 6 7 7 8 9 11 12 12 11 11 9 8 7 5 5 6 7 6 5 6 6 5 4 3 3 4 3
9 6 6 5 4 4 3 3 3 4 6 6 5 5 4 6 7 7 7 8 11 14 12 10 9 7 6 5 4 5 7 8 7 5 6 6 4 3 2 2 3 3
14 10 7 4 3 4 4 4 2 1 3 5 7 7 4 5 7 7 8 9 11 14 12 9 7 6 5 5 5 6 7 7 7 5 5 6 4 3 3 2 2 3
15 15 14 12 9 7 7 6 4 4 6 7 7 6 4 4 6 7 8 9 12 14 11 7 6 5 4 3 4 5 6 7 6 4 3 4 4 3 3 3 3 2
7 10 12 12 12 11 10 9 8 8 10 10 8 6 6 5 5 7 8 8 11 11 8 7 6 4 2 2 2 3 5 7 6 3 3 4 4 3 2 2 3 2
4 7 8 10 11 12 12 11 9 10 13 14 11 9 7 5 5 5 5 8 11 10 8 8 7 4 2 1 1 1 4 7 7 5 4 4 5 3 1 1 1 2
3 4 6 10 13 14 13 11 10 12 15 17 15 10 6 6 8 7 8 10 12 11 10 8 5 4 2 1 1 2 3 5 6 7 6 5 4 3 2 2 0 1
2 2 3 7 11 16 17 12 9 12 14 15 14 10 7 8 9 8 9 10 9 10 12 8 4 3 3 2 4 3 3 5 5 6 5 4 4 3 2 1 0 2
1 2 3 5 7 14 20 16 10 11 13 12 11 9 7 6 7 7 9 9 9 12 14 11 7 6 5 6 7 6 5 6 4 4 3 2 2 1 0 1 3 4
1 1 2 4 3 7 19 22 14 10 11 12 10 8 6 5 7 9 9 10 11 12 13 11 9 8 8 8 8 6 5 4 3 3 3 2 2 3 2 3 4 4
3 1 -0 2 2 2 13 24 22 13 10 10 8 6 7 8 10 11 11 12 13 13 12 10 7 6 6 4 4 4 4 4 4 3 3 4 4 4 4 3 3 2
Height
5930 5931 5933 5934 5935 5937 5938 5939 5941 5942 5943 5944 5945 5946 5947 5948 5948 5949 5950 5951 5951 5952 5952 5951 5951 5951 5951 5951 5951 5950 5950 5950 5950 5950 5949 5949 5949 5949 5949 5949 5949 5949
5928 5930 5931 5933 5934 5936 5937 5938 5939 5941 5942 5943 5944 5945 5946 5947 5948 5949 5950 5950 5951 5951 5951 5951 5951 5951 5951 5950 5950 5950 5950 5950 5950 5950 5949 5949 5949 5949 5948 5949 5948 5948
5926 5928 5930 5931 5933 5934 5936 5937 5938 5940 5941 5942 5944 5945 5945 5946 5947 5948 5949 5949 5950 5951 5951 5951 5950 5950 5950 5950 5950 5950 5950 5950 5949 5949 5949 5949 5949 5948 5948 5948 5948 5948
5925 5927 5928 5930 5931 5933 5934 5936 5937 5939 5940 5941 5943 5944 5945 5945 5946 5947 5948 5948 5949 5949 5950 5950 5950 5949 5949 5949 5949 5949 5949 5949 5949 5949 5949 5948 5948 5948 5948 5948 5948 5948
5924 5925 5927 5928 5930 5931 5933 5935 5936 5938 5939 5940 5941 5942 5943 5944 5945 5946 5947 5947 5947 5948 5948 5949 5949 5949 5948 5948 5948 5948 5948 5948 5948 5948 5948 5948 5948 5947 5947 5947 5947 5947
5923 5924 5926 5927 5929 5930 5931 5933 5935 5936 5938 5939 5940 5941 5942 5943 5944 5944 5945 5946 5946 5946 5947 5947 5947 5948 5948 5947 5947 5947 5947 5947 5947 5948 5947 5947 5947 5947 5946 5946 5946 5947
5921 5923 5925 5926 5927 5928 5930 5931 5933 5935 5937 5938 5939 5940 5941 5942 5942 5943 5944 5944 5945 5945 5945 5945 5946 5946 5946 5946 5947 5947 5946 5946 5946 5946 5947 5947 5946 5946 5946 5946 5945 5945
5920 5921 5923 5924 5926 5927 5929 5930 5932 5934 5935 5937 5938 5939 5940 5940 5941 5941 5942 5943 5943 5943 5944 5944 5944 5945 5945 5945 5946 5946 5946 5945 5945 5945 5945 5946 5946 5945 5945 5945 5945 5944
5918 5920 5922 5923 5925 5926 5928 5929 5931 5932 5934 5935 5936 5937 5938 5939 5939 5940 5940 5941 5942 5942 5942 5942 5943 5943 5943 5943 5944 5944 5945 5945 5944 5944 5944 5944 5944 5945 5945 5944 5944 5943
5918 5919 5921 5922 5924 5925 5927 5928 5929 5931 5932 5933 5935 5936 5937 5937 5938 5939 5939 5939 5940 5940 5940 5941 5941 5941 5941 5942 5942 5943 5943 5943 5943 5943 5943 5943 5943 5943 5943 5943 5943 5942
5916 5918 5920 5921 5923 5924 5925 5927 5928 5929 5931 5932 5933 5934 5935 5936 5937 5937 5937 5937 5938 5938 5938 5939 5939 5939 5939 5940 5940 5941 5941 5942 5942 5942 5942 5942 5942 5942 5942 5942 5941 5941
5915 5917 5919 5920 5921 5922 5924 5925 5926 5928 5929 5930 5931 5932 5933 5934 5935 5935 5935 5936 5936 5936 5937 5937 5937 5937 5937 5938 5939 5939 5940 5940 5940 5940 5941 5941 5941 5941 5940 5940 5940 5940
5914 5916 5917 5918 5919 5921 5922 5923 5924 5926 5927 5928 5929 5931 5932 5932 5933 5934 5934 5934 5934 5934 5935 5935 5935 5935 5936 5937 5938 5938 5938 5939 5939 5939 5939 5940 5940 5940 5940 5939 5939 5938
5912 5914 5915 5917 5918 5919 5920 5921 5922 5924 5925 5926 5927 5929 5930 5931 5931 5932 5932 5933 5933 5933 5933 5934 5934 5934 5935 5936 5936 5937 5938 5938 5938 5938 5938 5939 5939 5939 5939 5938 5938 5937
5911 5912 5914 5916 5917 5918 5918 5919 5920 5921 5923 5924 5925 5927 5928 5929 5930 5930 5931 5931 5931 5932 5932 5933 5933 5934 5934 5935 5935 5936 5936 5937 5937 5937 5937 5937 5937 5937 5937 5937 5937 5937
5909 5911 5913 5914 5915 5916 5916 5917 5918 5919 5920 5922 5923 5924 5926 5927 5928 5928 5929 5929 5930 5930 5931 5932 5932 5933 5933 5934 5934 5935 5935 5935 5936 5936 5936 5936 5936 5936 5936 5936 5936 5935
5908 5910 5911 5913 5914 5914 5915 5915 5916 5917 5918 5919 5921 5922 5923 5924 5925 5926 5927 5928 5928 5929 5930 5930 5931 5931 5932 5932 5933 5933 5934 5934 5934 5935 5935 5935 5935 5935 5935 5935 5934 5934
5906 5907 5909 5910 5911 5912 5913 5913 5914 5915 5916 5917 5919 5920 5921 5922 5923 5924 5925 5926 5926 5927 5928 5928 5929 5930 5930 5931 5932 5932 5933 5933 5933 5933 5933 5933 5933 5933 5933 5933 5933 5933
5903 5905 5906 5907 5908 5909 5910 5911 5912 5913 5914 5915 5916 5917 5918 5919 5920 5921 5922 5923 5924 5925 5926 5927 5927 5928 5929 5929 5930 5931 5931 5931 5932 5932 5932 5932 5932 5932 5932 5931 5931 5931
5901 5902 5903 5904 5905 5906 5907 5908 5909 5910 5911 5912 5913 5914 5915 5917 5918 5919 5920 5921 5922 5923 5923 5924 5925 5926 5927 5927 5928 5928 5929 5929 5930 5930 5930 5930 5930 5930 5930 5930 5930 5930
5899 5900 5901 5902 5902 5903 5904 5906 5907 5908 5908 5910 5911 5912 5913 5914 5915 5916 5917 5918 5919 5920 5921 5922 5923 5924 5924 5925 5925 5926 5926 5926 5927 5928 5928 5928 5928 5928 5928 5928 5928 5928
5897 5898 5898 5899 5900 5901 5902 5903 5904 5905 5906 5907 5908 5909 5911 5911 5912 5914 5915 5916 5916 5917 5919 5920 5920 5921 5921 5922 5922 5923 5923 5924 5925 5925 5926 5926 5926 5926 5926 5926 5926 5926
5894 5895 5896 5897 5897 5898 5899 5900 5901 5902 5903 5904 5905 5907 5908 5909 5910 5911 5912 5913 5914 5915 5916 5917 5917 5918 5918 5919 5920 5920 5921 5921 5922 5922 5923 5923 5923 5924 5923 5924 5923 5923
5892 5893 5893 5894 5895 5896 5897 5898 5899 5899 5900 5901 5903 5904 5906 5906 5907 5908 5909 5910 5912 5913 5914 5914 5915 5915 5916 5917 5918 5918 5918 5918 5919 5919 5920 5920 5921 5920 5920 5920 5920 5919
5890 5891 5892 5892 5893 5894 5894 5895 5896 5897 5898 5899 5900 5902 5903 5904 5904 5905 5907 5908 5909 5910 5911 5912 5913 5913 5914 5915 5915 5915 5915 5916 5916 5916 5917 5918 5918 5918 5917 5917 5916 5916
5888 5889 5890 5891 5891 5891 5892 5892 5893 5894 5896 5897 5898 5899 5900 5901 5902 5903 5905 5906 5906 5907 5908 5909 5910 5910 5911 5912 5912 5912 5913 5913 5913 5914 5915 5915 5915 5915 5915 5914 5913 5913